EZY98RJ LSGG-EGPH

Flight info

Callsign EZY98RJ
Flight time 2h 4m
Altitude 38000
Route DIPIR T37 IBABA DCT TUTAX DCT OBURO DCT OKRIX DCT CLM DCT KOPOR DCT VESAN DCT RATUK DCT SOVAT L613 LEHOC DCT INPIP
Aircraft A320/M-SDE3FGHIRWY/LB1

Departure

Time 2026-04-23 09:23
Airport Geneva International Airport (LSGG)

Arrival

Time 2026-04-23 11:27
Airport Edinburgh Airport (EGPH)
Time Latitude Longitude Altitude Speed Heading
2026-04-23 08:53 46.23156 6.10741 1400 ft 0 kts 135°
2026-04-23 09:11 46.23161 6.10733 1405 ft 4 kts 137°
2026-04-23 09:11 46.23182 6.10710 1398 ft 4 kts 162°
2026-04-23 09:11 46.23202 6.10712 1401 ft 2 kts 225°
2026-04-23 09:11 46.23214 6.10729 1401 ft 0 kts 225°
2026-04-23 09:13 46.23210 6.10723 1403 ft 3 kts 225°
2026-04-23 09:13 46.23188 6.10691 1401 ft 6 kts 225°
2026-04-23 09:13 46.23157 6.10646 1403 ft 7 kts 225°
2026-04-23 09:14 46.23121 6.10591 1399 ft 8 kts 226°
2026-04-23 09:14 46.23079 6.10530 1397 ft 8 kts 226°
2026-04-23 09:14 46.23040 6.10473 1399 ft 8 kts 224°
2026-04-23 09:14 46.22999 6.10413 1395 ft 9 kts 226°
2026-04-23 09:15 46.22960 6.10356 1393 ft 7 kts 226°
2026-04-23 09:15 46.22956 6.10301 1397 ft 5 kts 301°
2026-04-23 09:15 46.22978 6.10270 1404 ft 4 kts 316°
2026-04-23 09:15 46.22994 6.10247 1398 ft 3 kts 316°
2026-04-23 09:16 46.23027 6.10202 1395 ft 12 kts 316°
2026-04-23 09:16 46.23055 6.10125 1397 ft 7 kts 245°
2026-04-23 09:16 46.23004 6.10051 1397 ft 11 kts 226°
2026-04-23 09:16 46.22982 6.10018 1399 ft 10 kts 226°
2026-04-23 09:17 46.22967 6.09995 1400 ft 10 kts 225°
2026-04-23 09:17 46.22922 6.09929 1402 ft 8 kts 225°
2026-04-23 09:17 46.22883 6.09873 1401 ft 7 kts 225°
2026-04-23 09:18 46.22850 6.09825 1400 ft 7 kts 222°
2026-04-23 09:18 46.22791 6.09737 1397 ft 17 kts 225°
2026-04-23 09:18 46.22710 6.09620 1401 ft 16 kts 225°
2026-04-23 09:18 46.22639 6.09516 1400 ft 14 kts 225°
2026-04-23 09:19 46.22579 6.09421 1401 ft 11 kts 235°
2026-04-23 09:19 46.22555 6.09348 1405 ft 4 kts 251°
2026-04-23 09:19 46.22552 6.09335 1404 ft 0 kts 255°
2026-04-23 09:19 46.22550 6.09310 1404 ft 6 kts 266°
2026-04-23 09:20 46.22550 6.09275 1407 ft 5 kts 271°
2026-04-23 09:20 46.22550 6.09258 1408 ft 0 kts 271°
2026-04-23 09:21 46.22550 6.09257 1408 ft 1 kts 271°
2026-04-23 09:21 46.22582 6.09168 1415 ft 14 kts 335°
2026-04-23 09:21 46.22651 6.09202 1422 ft 0 kts 43°
2026-04-23 09:22 46.22670 6.09229 1417 ft 10 kts 45°
2026-04-23 09:22 46.22875 6.09530 1416 ft 78 kts 46°
2026-04-23 09:22 46.23408 6.10312 1397 ft 138 kts 45°
2026-04-23 09:22 46.24168 6.11451 1619 ft 163 kts 47°
2026-04-23 09:23 46.24918 6.12652 2445 ft 161 kts 46°
2026-04-23 09:23 46.25716 6.13834 3085 ft 172 kts 45°
2026-04-23 09:23 46.26617 6.15133 3409 ft 194 kts 45°
2026-04-23 09:23 46.27624 6.16583 3712 ft 215 kts 45°
2026-04-23 09:24 46.28749 6.18212 4081 ft 240 kts 45°
2026-04-23 09:24 46.29954 6.19966 4705 ft 254 kts 46°
2026-04-23 09:24 46.31213 6.21808 5555 ft 261 kts 46°
2026-04-23 09:24 46.32503 6.23704 6322 ft 266 kts 47°
2026-04-23 09:25 46.33809 6.25627 7230 ft 268 kts 46°
2026-04-23 09:25 46.35134 6.27564 8103 ft 272 kts 44°
2026-04-23 09:25 46.36769 6.28951 8908 ft 280 kts 15°
2026-04-23 09:25 46.38728 6.28992 9752 ft 288 kts 349°
2026-04-23 09:26 46.40683 6.28247 10577 ft 291 kts 348°
2026-04-23 09:26 46.42663 6.27494 11294 ft 299 kts 348°
2026-04-23 09:26 46.44732 6.26730 11564 ft 322 kts 349°
2026-04-23 09:26 46.46966 6.25921 12022 ft 336 kts 349°
2026-04-23 09:27 46.49261 6.25092 12717 ft 342 kts 349°
2026-04-23 09:27 46.51593 6.24246 13447 ft 347 kts 348°
2026-04-23 09:27 46.53944 6.23389 14169 ft 351 kts 348°
2026-04-23 09:27 46.56335 6.22516 14799 ft 355 kts 348°
2026-04-23 09:28 46.58740 6.21578 15373 ft 361 kts 343°
2026-04-23 09:28 46.61014 6.20059 15988 ft 369 kts 331°
2026-04-23 09:28 46.63094 6.17819 16596 ft 376 kts 319°
2026-04-23 09:28 46.64885 6.15003 17180 ft 382 kts 312°
2026-04-23 09:29 46.66638 6.12071 17786 ft 386 kts 312°
2026-04-23 09:29 46.68412 6.09101 18390 ft 390 kts 312°
2026-04-23 09:29 46.70207 6.06100 18947 ft 394 kts 312°
2026-04-23 09:29 46.71388 6.04075 19281 ft 397 kts 309°
2026-04-23 09:30 46.72904 6.00675 19773 ft 402 kts 297°
2026-04-23 09:30 46.74007 5.96903 20275 ft 406 kts 290°
2026-04-23 09:30 46.75307 5.91750 20938 ft 411 kts 290°
2026-04-23 09:30 46.75978 5.89086 21271 ft 414 kts 290°
2026-04-23 09:31 46.76971 5.85136 21749 ft 418 kts 290°
2026-04-23 09:31 46.77979 5.81117 22229 ft 422 kts 290°
2026-04-23 09:31 46.78994 5.77070 22686 ft 426 kts 289°
2026-04-23 09:31 46.80006 5.73027 23146 ft 430 kts 289°
2026-04-23 09:32 46.81038 5.68905 23620 ft 433 kts 290°
2026-04-23 09:32 46.82078 5.64751 24090 ft 436 kts 290°
2026-04-23 09:32 46.83120 5.60594 24544 ft 437 kts 290°
2026-04-23 09:32 46.84167 5.56408 24954 ft 439 kts 290°
2026-04-23 09:33 46.85220 5.52197 25353 ft 442 kts 290°
2026-04-23 09:33 46.86259 5.48020 25766 ft 443 kts 290°
2026-04-23 09:33 46.87310 5.43773 26188 ft 444 kts 290°
2026-04-23 09:33 46.88362 5.39516 26610 ft 446 kts 290°
2026-04-23 09:34 46.89431 5.35255 27021 ft 447 kts 290°
2026-04-23 09:34 46.90514 5.31010 27426 ft 448 kts 292°
2026-04-23 09:34 46.91878 5.26922 27975 ft 444 kts 302°
2026-04-23 09:34 46.93631 5.23218 28471 ft 442 kts 311°
2026-04-23 09:35 46.95735 5.19944 28906 ft 440 kts 319°
2026-04-23 09:35 46.98016 5.16946 29307 ft 441 kts 320°
2026-04-23 09:35 47.00303 5.13930 29706 ft 442 kts 319°
2026-04-23 09:35 47.02591 5.10905 30086 ft 443 kts 319°
2026-04-23 09:36 47.04848 5.07907 30432 ft 444 kts 319°
2026-04-23 09:36 47.07139 5.04856 30718 ft 446 kts 319°
2026-04-23 09:36 47.09445 5.01776 30861 ft 452 kts 319°
2026-04-23 09:36 47.11782 4.98652 31053 ft 456 kts 319°
2026-04-23 09:37 47.14136 4.95513 31305 ft 458 kts 319°
2026-04-23 09:37 47.16494 4.92369 31681 ft 455 kts 320°
2026-04-23 09:37 47.18822 4.89261 32306 ft 447 kts 320°
2026-04-23 09:37 47.21107 4.86201 32833 ft 443 kts 319°
2026-04-23 09:38 47.23387 4.83144 33263 ft 440 kts 320°
2026-04-23 09:38 47.25642 4.80115 33689 ft 438 kts 319°
2026-04-23 09:38 47.27890 4.77095 34086 ft 436 kts 319°
2026-04-23 09:38 47.30134 4.74076 34431 ft 436 kts 320°
2026-04-23 09:39 47.32379 4.71055 34649 ft 437 kts 320°
2026-04-23 09:39 47.34598 4.68071 34911 ft 437 kts 320°
2026-04-23 09:39 47.36841 4.65046 35152 ft 437 kts 320°
2026-04-23 09:39 47.39088 4.62007 35403 ft 438 kts 319°
2026-04-23 09:40 47.41336 4.58963 35638 ft 438 kts 319°
2026-04-23 09:40 47.43581 4.55919 35944 ft 436 kts 319°
2026-04-23 09:40 47.45802 4.52909 36342 ft 432 kts 319°
2026-04-23 09:40 47.48011 4.49907 36613 ft 431 kts 319°
2026-04-23 09:41 47.50219 4.46905 36874 ft 430 kts 319°
2026-04-23 09:41 47.52420 4.43909 37079 ft 431 kts 320°
2026-04-23 09:41 47.54633 4.40894 37209 ft 433 kts 319°
2026-04-23 09:41 47.56825 4.37901 37347 ft 435 kts 319°
2026-04-23 09:42 47.59052 4.34850 37514 ft 435 kts 319°
2026-04-23 09:42 47.61277 4.31796 37722 ft 435 kts 319°
2026-04-23 09:42 47.63505 4.28743 37884 ft 436 kts 318°
2026-04-23 09:42 47.65578 4.25438 38094 ft 438 kts 310°
2026-04-23 09:43 47.67340 4.21734 38272 ft 440 kts 306°
2026-04-23 09:43 47.70722 4.14286 38308 ft 434 kts 306°
2026-04-23 09:44 47.74103 4.06847 38318 ft 435 kts 306°
2026-04-23 09:44 47.77500 3.99350 38299 ft 437 kts 306°
2026-04-23 09:45 47.80900 3.91821 38315 ft 438 kts 305°
2026-04-23 09:45 47.84267 3.84340 38320 ft 438 kts 305°
2026-04-23 09:46 47.87667 3.76788 38324 ft 438 kts 305°
2026-04-23 09:46 47.91053 3.69218 38327 ft 439 kts 305°
2026-04-23 09:47 47.94487 3.61688 38330 ft 438 kts 311°
2026-04-23 09:47 47.98957 3.55726 38320 ft 433 kts 330°
2026-04-23 09:48 48.04406 3.51928 38319 ft 432 kts 339°
2026-04-23 09:48 48.09965 3.48470 38326 ft 433 kts 339°
2026-04-23 09:49 48.15536 3.44995 38331 ft 434 kts 339°
2026-04-23 09:49 48.21085 3.41537 38323 ft 434 kts 339°
2026-04-23 09:50 48.26665 3.38047 38344 ft 434 kts 339°
2026-04-23 09:50 48.32230 3.34552 38355 ft 433 kts 338°
2026-04-23 09:51 48.37803 3.31057 38356 ft 433 kts 339°
2026-04-23 09:51 48.43362 3.27560 38346 ft 433 kts 340°
2026-04-23 09:52 48.48936 3.24043 38336 ft 434 kts 338°
2026-04-23 09:52 48.54514 3.20504 38342 ft 435 kts 340°
2026-04-23 09:53 48.60067 3.16973 38343 ft 436 kts 340°
2026-04-23 09:53 48.65660 3.13417 38330 ft 437 kts 338°
2026-04-23 09:54 48.71290 3.09834 38336 ft 439 kts 340°
2026-04-23 09:54 48.76922 3.06235 38346 ft 440 kts 338°
2026-04-23 09:55 48.82558 3.02617 38370 ft 439 kts 339°
2026-04-23 09:55 48.87948 2.98363 38391 ft 439 kts 332°
2026-04-23 09:56 48.93243 2.93727 38391 ft 438 kts 332°
2026-04-23 09:56 48.98526 2.89108 38390 ft 438 kts 332°
2026-04-23 09:57 49.03795 2.84477 38391 ft 437 kts 332°
2026-04-23 09:57 49.09053 2.79854 38375 ft 438 kts 332°
2026-04-23 09:58 49.14349 2.75186 38368 ft 440 kts 332°
2026-04-23 09:58 49.19663 2.70487 38368 ft 441 kts 331°
2026-04-23 09:59 49.24969 2.65786 38364 ft 441 kts 332°
2026-04-23 09:59 49.30281 2.61075 38384 ft 440 kts 332°
2026-04-23 10:00 49.35572 2.56346 38395 ft 440 kts 331°
2026-04-23 10:00 49.40831 2.51638 38403 ft 440 kts 332°
2026-04-23 10:01 49.46122 2.46891 38413 ft 440 kts 331°
2026-04-23 10:01 49.51476 2.42331 38402 ft 439 kts 339°
2026-04-23 10:02 49.57286 2.39496 38388 ft 438 kts 346°
2026-04-23 10:02 49.63127 2.36869 38387 ft 440 kts 345°
2026-04-23 10:03 49.69002 2.34171 38393 ft 440 kts 345°
2026-04-23 10:03 49.74890 2.31477 38390 ft 441 kts 345°
2026-04-23 10:04 49.80790 2.28790 38386 ft 442 kts 345°
2026-04-23 10:04 49.86696 2.26085 38388 ft 442 kts 345°
2026-04-23 10:05 49.92562 2.23389 38422 ft 441 kts 345°
2026-04-23 10:05 49.98459 2.20667 38420 ft 441 kts 345°
2026-04-23 10:06 50.04344 2.17942 38420 ft 441 kts 345°
2026-04-23 10:06 50.10232 2.15207 38416 ft 441 kts 344°
2026-04-23 10:07 50.16130 2.12477 38424 ft 441 kts 345°
2026-04-23 10:07 50.22022 2.09730 38408 ft 442 kts 345°
2026-04-23 10:08 50.27889 2.06992 38406 ft 443 kts 346°
2026-04-23 10:08 50.33801 2.04221 38414 ft 443 kts 342°
2026-04-23 10:09 50.39270 1.99751 38418 ft 447 kts 323°
2026-04-23 10:09 50.41654 1.96596 38411 ft 448 kts 320°
2026-04-23 10:09 50.46365 1.90143 38413 ft 450 kts 320°
2026-04-23 10:10 50.51069 1.83728 38410 ft 450 kts 320°
2026-04-23 10:10 50.55796 1.77270 38427 ft 450 kts 320°
2026-04-23 10:11 50.60514 1.70794 38433 ft 449 kts 320°
2026-04-23 10:11 50.65215 1.64308 38438 ft 449 kts 320°
2026-04-23 10:12 50.69914 1.57814 38443 ft 449 kts 320°
2026-04-23 10:12 50.74623 1.51292 38447 ft 450 kts 320°
2026-04-23 10:13 50.79300 1.44792 38455 ft 450 kts 320°
2026-04-23 10:13 50.83996 1.38246 38460 ft 450 kts 320°
2026-04-23 10:14 50.87908 1.32788 38463 ft 450 kts 321°
2026-04-23 10:14 50.92609 1.26211 38466 ft 450 kts 320°
2026-04-23 10:15 50.97300 1.19616 38479 ft 450 kts 320°
2026-04-23 10:15 51.01954 1.13059 38473 ft 450 kts 320°
2026-04-23 10:16 51.06670 1.06521 38465 ft 448 kts 325°
2026-04-23 10:16 51.11779 1.00829 38462 ft 448 kts 327°
2026-04-23 10:17 51.16890 0.95184 38467 ft 447 kts 326°
2026-04-23 10:17 51.21994 0.89528 38509 ft 445 kts 327°
2026-04-23 10:18 51.27033 0.83913 38518 ft 443 kts 327°
2026-04-23 10:18 51.32082 0.78272 38519 ft 442 kts 327°
2026-04-23 10:19 51.37119 0.72632 38506 ft 442 kts 328°
2026-04-23 10:19 51.42155 0.66974 38502 ft 441 kts 327°
2026-04-23 10:20 51.47150 0.61355 38501 ft 441 kts 326°
2026-04-23 10:20 51.52178 0.55684 38500 ft 441 kts 326°
2026-04-23 10:21 51.57196 0.50003 38497 ft 441 kts 327°
2026-04-23 10:21 51.62227 0.44297 38505 ft 441 kts 327°
2026-04-23 10:22 51.67226 0.38610 38510 ft 439 kts 326°
2026-04-23 10:22 51.72210 0.32919 38532 ft 438 kts 327°
2026-04-23 10:23 51.77177 0.27235 38537 ft 437 kts 326°
2026-04-23 10:23 51.82113 0.21572 38525 ft 437 kts 326°
2026-04-23 10:24 51.87073 0.15861 38512 ft 438 kts 326°
2026-04-23 10:24 51.92014 0.10160 38510 ft 439 kts 327°
2026-04-23 10:25 51.97001 0.04401 38509 ft 440 kts 326°
2026-04-23 10:25 52.01984 -0.01362 38496 ft 439 kts 328°
2026-04-23 10:26 52.07291 -0.06199 38525 ft 436 kts 334°
2026-04-23 10:26 52.12631 -0.10873 38519 ft 435 kts 333°
2026-04-23 10:27 52.17971 -0.15565 38529 ft 435 kts 333°
2026-04-23 10:27 52.23261 -0.20216 38515 ft 434 kts 333°
2026-04-23 10:28 52.28585 -0.24908 38512 ft 434 kts 333°
2026-04-23 10:28 52.33916 -0.29620 38506 ft 435 kts 332°
2026-04-23 10:29 52.39250 -0.34364 38508 ft 436 kts 333°
2026-04-23 10:29 52.44555 -0.39092 38513 ft 437 kts 332°
2026-04-23 10:30 52.49908 -0.43858 38515 ft 437 kts 334°
2026-04-23 10:30 52.55255 -0.48634 38512 ft 438 kts 333°
2026-04-23 10:31 52.60601 -0.53438 38514 ft 439 kts 332°
2026-04-23 10:31 52.65932 -0.58246 38516 ft 439 kts 333°
2026-04-23 10:32 52.71293 -0.63087 38519 ft 440 kts 333°
2026-04-23 10:32 52.76670 -0.67947 38545 ft 440 kts 332°
2026-04-23 10:33 52.82050 -0.72831 38529 ft 441 kts 333°
2026-04-23 10:33 52.87406 -0.77711 38536 ft 442 kts 332°
2026-04-23 10:34 52.92809 -0.82641 38539 ft 443 kts 333°
2026-04-23 10:34 52.98216 -0.87594 38542 ft 443 kts 332°
2026-04-23 10:35 53.03627 -0.92550 38533 ft 444 kts 332°
2026-04-23 10:35 53.09010 -0.97488 38537 ft 445 kts 332°
2026-04-23 10:36 53.14430 -1.02498 38540 ft 445 kts 332°
2026-04-23 10:36 53.19839 -1.07515 38562 ft 443 kts 332°
2026-04-23 10:37 53.25219 -1.12512 38564 ft 442 kts 332°
2026-04-23 10:37 53.30590 -1.17503 38558 ft 441 kts 332°
2026-04-23 10:38 53.35955 -1.22517 38560 ft 441 kts 332°
2026-04-23 10:38 53.41283 -1.27517 38557 ft 441 kts 332°
2026-04-23 10:39 53.46647 -1.32549 38559 ft 441 kts 332°
2026-04-23 10:39 53.51997 -1.37592 38563 ft 441 kts 332°
2026-04-23 10:40 53.57352 -1.42668 38564 ft 441 kts 332°
2026-04-23 10:40 53.62699 -1.47752 38562 ft 441 kts 332°
2026-04-23 10:41 53.68041 -1.52846 38562 ft 441 kts 331°
2026-04-23 10:41 53.73313 -1.58064 38562 ft 442 kts 325°
2026-04-23 10:42 53.77968 -1.64851 38562 ft 441 kts 318°
2026-04-23 10:42 53.82519 -1.71848 38567 ft 441 kts 319°
2026-04-23 10:43 53.87054 -1.78856 38566 ft 441 kts 318°
2026-04-23 10:43 53.91554 -1.85826 38563 ft 441 kts 318°
2026-04-23 10:44 53.96089 -1.92846 38561 ft 441 kts 318°
2026-04-23 10:44 54.00616 -1.99876 38558 ft 441 kts 319°
2026-04-23 10:45 54.05693 -2.05677 38557 ft 440 kts 330°
2026-04-23 10:45 54.10951 -2.10920 38457 ft 441 kts 330°
2026-04-23 10:46 54.13586 -2.13572 38171 ft 437 kts 330°
2026-04-23 10:46 54.16196 -2.16210 37896 ft 433 kts 330°
2026-04-23 10:46 54.18784 -2.18828 37619 ft 431 kts 330°
2026-04-23 10:46 54.21360 -2.21430 37364 ft 428 kts 330°
2026-04-23 10:47 54.23930 -2.24022 37095 ft 429 kts 330°
2026-04-23 10:47 54.26503 -2.26625 36832 ft 430 kts 330°
2026-04-23 10:47 54.29054 -2.29209 36578 ft 430 kts 330°
2026-04-23 10:47 54.31625 -2.31819 36326 ft 428 kts 330°
2026-04-23 10:48 54.34186 -2.34418 36061 ft 425 kts 330°
2026-04-23 10:48 54.36727 -2.36998 35812 ft 423 kts 330°
2026-04-23 10:48 54.39260 -2.39570 35565 ft 421 kts 330°
2026-04-23 10:48 54.41777 -2.42130 35320 ft 419 kts 330°
2026-04-23 10:49 54.44252 -2.44656 35079 ft 416 kts 330°
2026-04-23 10:49 54.46726 -2.47188 34644 ft 412 kts 330°
2026-04-23 10:49 54.49185 -2.49710 34084 ft 410 kts 330°
2026-04-23 10:49 54.51620 -2.52216 33586 ft 406 kts 330°
2026-04-23 10:50 54.54036 -2.54706 33101 ft 402 kts 330°
2026-04-23 10:50 54.56428 -2.57167 32610 ft 399 kts 330°
2026-04-23 10:50 54.58802 -2.59609 32123 ft 395 kts 330°
2026-04-23 10:50 54.61150 -2.62027 31649 ft 392 kts 330°
2026-04-23 10:51 54.63479 -2.64437 31190 ft 389 kts 330°
2026-04-23 10:51 54.65763 -2.66805 30742 ft 386 kts 330°
2026-04-23 10:51 54.68058 -2.69180 30252 ft 382 kts 330°
2026-04-23 10:51 54.70329 -2.71531 29815 ft 377 kts 330°
2026-04-23 10:52 54.72568 -2.73853 29383 ft 372 kts 329°
2026-04-23 10:52 54.74770 -2.76144 28978 ft 367 kts 329°
2026-04-23 10:52 54.76950 -2.78415 28569 ft 363 kts 329°
2026-04-23 10:52 54.79105 -2.80661 28163 ft 359 kts 329°
2026-04-23 10:53 54.81233 -2.82884 27748 ft 355 kts 329°
2026-04-23 10:53 54.83336 -2.85084 27347 ft 352 kts 329°
2026-04-23 10:53 54.85398 -2.87244 26950 ft 349 kts 329°
2026-04-23 10:53 54.87482 -2.89387 26543 ft 346 kts 333°
2026-04-23 10:54 54.89696 -2.91106 26079 ft 354 kts 338°
2026-04-23 10:54 54.92004 -2.92763 25564 ft 361 kts 337°
2026-04-23 10:54 54.94332 -2.94436 25063 ft 362 kts 337°
2026-04-23 10:54 54.96660 -2.96118 24558 ft 362 kts 337°
2026-04-23 10:55 54.98987 -2.97803 24042 ft 362 kts 337°
2026-04-23 10:55 55.01311 -2.99492 23485 ft 361 kts 337°
2026-04-23 10:55 55.03626 -3.01175 22982 ft 360 kts 336°
2026-04-23 10:55 55.05905 -3.02835 22486 ft 359 kts 337°
2026-04-23 10:56 55.08205 -3.04513 21986 ft 358 kts 337°
2026-04-23 10:56 55.10500 -3.06191 21490 ft 357 kts 336°
2026-04-23 10:56 55.12798 -3.07868 20979 ft 357 kts 336°
2026-04-23 10:56 55.15089 -3.09538 20567 ft 354 kts 336°
2026-04-23 10:57 55.17335 -3.11177 20343 ft 346 kts 336°
2026-04-23 10:57 55.19551 -3.12799 19959 ft 343 kts 336°
2026-04-23 10:57 55.21746 -3.14414 19550 ft 342 kts 336°
2026-04-23 10:57 55.23940 -3.16035 19201 ft 339 kts 336°
2026-04-23 10:58 55.26113 -3.17639 18860 ft 337 kts 336°
2026-04-23 10:58 55.28263 -3.19223 18465 ft 334 kts 336°
2026-04-23 10:58 55.30374 -3.20911 18047 ft 332 kts 329°
2026-04-23 10:58 55.32364 -3.22947 17637 ft 331 kts 328°
2026-04-23 10:59 55.34326 -3.24957 17249 ft 330 kts 328°
2026-04-23 10:59 55.36309 -3.26990 16865 ft 328 kts 329°
2026-04-23 10:59 55.38280 -3.29016 16495 ft 327 kts 328°
2026-04-23 10:59 55.40242 -3.31033 16135 ft 326 kts 329°
2026-04-23 11:00 55.42189 -3.33034 15640 ft 322 kts 329°
2026-04-23 11:00 55.43469 -3.34352 15184 ft 322 kts 329°
2026-04-23 11:00 55.46049 -3.37023 14329 ft 320 kts 328°
2026-04-23 11:00 55.47932 -3.38974 13654 ft 317 kts 328°
2026-04-23 11:01 55.49213 -3.40298 13227 ft 315 kts 328°
2026-04-23 11:01 55.51093 -3.42244 12569 ft 311 kts 328°
2026-04-23 11:01 55.53554 -3.44795 11748 ft 307 kts 328°
2026-04-23 11:01 55.54808 -3.46097 11483 ft 308 kts 328°
2026-04-23 11:02 55.56643 -3.48006 11149 ft 305 kts 328°
2026-04-23 11:02 55.58438 -3.49876 10757 ft 305 kts 328°
2026-04-23 11:02 55.60307 -3.51824 10043 ft 311 kts 328°
2026-04-23 11:02 55.62117 -3.53709 9836 ft 291 kts 328°
2026-04-23 11:03 55.63752 -3.55414 9726 ft 271 kts 327°
2026-04-23 11:03 55.65152 -3.57479 9422 ft 258 kts 306°
2026-04-23 11:03 55.66304 -3.59887 9071 ft 256 kts 313°
2026-04-23 11:03 55.67613 -3.62044 8724 ft 257 kts 317°
2026-04-23 11:04 55.68958 -3.64070 8390 ft 257 kts 319°
2026-04-23 11:04 55.70365 -3.66047 8049 ft 257 kts 320°
2026-04-23 11:04 55.71782 -3.67984 7705 ft 257 kts 320°
2026-04-23 11:04 55.73167 -3.69955 7360 ft 251 kts 319°
2026-04-23 11:05 55.74481 -3.71895 7042 ft 242 kts 318°
2026-04-23 11:05 55.75755 -3.73802 6680 ft 237 kts 317°
2026-04-23 11:05 55.77036 -3.75727 6038 ft 245 kts 317°
2026-04-23 11:05 55.78371 -3.77617 5523 ft 246 kts 328°
2026-04-23 11:06 55.81494 -3.77728 4888 ft 230 kts 42°
2026-04-23 11:06 55.82306 -3.75463 4644 ft 213 kts 79°
2026-04-23 11:06 55.82716 -3.72978 4431 ft 207 kts 69°
2026-04-23 11:07 55.83447 -3.70850 4297 ft 197 kts 58°
2026-04-23 11:07 55.84189 -3.68843 4082 ft 192 kts 60°
2026-04-23 11:07 55.84889 -3.66849 3818 ft 187 kts 61°
2026-04-23 11:07 55.85560 -3.64905 3573 ft 183 kts 62°
2026-04-23 11:08 55.86223 -3.62976 3310 ft 182 kts 60°
2026-04-23 11:08 55.86881 -3.61057 3076 ft 182 kts 60°
2026-04-23 11:08 55.87529 -3.59165 2835 ft 181 kts 59°
2026-04-23 11:08 55.88184 -3.57252 2569 ft 176 kts 61°
2026-04-23 11:09 55.88805 -3.55439 2362 ft 166 kts 60°
2026-04-23 11:09 55.89397 -3.53704 2120 ft 162 kts 60°
2026-04-23 11:09 55.89976 -3.52008 1897 ft 159 kts 60°
2026-04-23 11:09 55.90547 -3.50336 1674 ft 157 kts 60°
2026-04-23 11:10 55.91110 -3.48683 1461 ft 154 kts 60°
2026-04-23 11:10 55.91659 -3.47073 1239 ft 148 kts 59°
2026-04-23 11:10 55.92161 -3.45600 1054 ft 135 kts 60°
2026-04-23 11:10 55.92635 -3.44207 868 ft 128 kts 58°
2026-04-23 11:11 55.93097 -3.42849 698 ft 128 kts 59°
2026-04-23 11:11 55.93558 -3.41494 526 ft 128 kts 59°
2026-04-23 11:11 55.94010 -3.40148 326 ft 126 kts 58°
2026-04-23 11:11 55.94464 -3.38828 155 ft 125 kts 58°
2026-04-23 11:12 55.94945 -3.37463 355 ft 140 kts 57°
2026-04-23 11:12 55.95498 -3.35879 897 ft 167 kts 57°
2026-04-23 11:12 55.96129 -3.34103 1562 ft 176 kts 58°
2026-04-23 11:12 55.96844 -3.32152 1907 ft 199 kts 57°
2026-04-23 11:13 55.97629 -3.30045 2467 ft 212 kts 57°
2026-04-23 11:13 55.98470 -3.27803 2937 ft 222 kts 57°
2026-04-23 11:13 55.99316 -3.25529 2978 ft 218 kts 57°
2026-04-23 11:13 56.00363 -3.23599 2983 ft 220 kts 29°
2026-04-23 11:14 56.01840 -3.23003 2985 ft 219 kts 353°
2026-04-23 11:14 56.03279 -3.23848 2985 ft 219 kts 333°
2026-04-23 11:14 56.04610 -3.25176 2984 ft 219 kts 326°
2026-04-23 11:14 56.05879 -3.26678 2984 ft 220 kts 324°
2026-04-23 11:15 56.07127 -3.28194 2976 ft 218 kts 324°
2026-04-23 11:15 56.08261 -3.29984 2975 ft 216 kts 300°
2026-04-23 11:15 56.08675 -3.32505 2980 ft 212 kts 265°
2026-04-23 11:15 56.08267 -3.35012 2982 ft 211 kts 243°
2026-04-23 11:16 56.07599 -3.37342 2987 ft 212 kts 239°
2026-04-23 11:16 56.06900 -3.39648 2977 ft 211 kts 240°
2026-04-23 11:16 56.06187 -3.41953 2982 ft 212 kts 239°
2026-04-23 11:16 56.05471 -3.44267 2981 ft 213 kts 239°
2026-04-23 11:17 56.04754 -3.46582 2981 ft 213 kts 240°
2026-04-23 11:17 56.04031 -3.48909 2980 ft 213 kts 239°
2026-04-23 11:17 56.03316 -3.51225 2978 ft 213 kts 239°
2026-04-23 11:17 56.02607 -3.53550 2981 ft 212 kts 240°
2026-04-23 11:18 56.01900 -3.55831 2984 ft 213 kts 240°
2026-04-23 11:18 56.01176 -3.58158 2981 ft 213 kts 239°
2026-04-23 11:18 56.00463 -3.60445 2988 ft 208 kts 239°
2026-04-23 11:18 55.99756 -3.62697 2987 ft 207 kts 240°
2026-04-23 11:19 55.99057 -3.64946 2981 ft 207 kts 239°
2026-04-23 11:19 55.98357 -3.67186 2990 ft 207 kts 238°
2026-04-23 11:19 55.97671 -3.69399 2984 ft 206 kts 239°
2026-04-23 11:19 55.96968 -3.71671 2980 ft 206 kts 239°
2026-04-23 11:20 55.96289 -3.73886 2984 ft 206 kts 240°
2026-04-23 11:20 55.95564 -3.76085 2979 ft 205 kts 230°
2026-04-23 11:20 55.94641 -3.77327 2974 ft 202 kts 200°
2026-04-23 11:20 55.93264 -3.77621 2971 ft 202 kts 167°
2026-04-23 11:21 55.92002 -3.76693 2965 ft 192 kts 152°
2026-04-23 11:21 55.90861 -3.75534 2958 ft 184 kts 150°
2026-04-23 11:21 55.89793 -3.74415 2974 ft 173 kts 150°
2026-04-23 11:21 55.88764 -3.73416 3009 ft 165 kts 152°
2026-04-23 11:22 55.87758 -3.72472 2981 ft 162 kts 152°
2026-04-23 11:22 55.86768 -3.71546 2976 ft 161 kts 152°
2026-04-23 11:22 55.85869 -3.70375 2984 ft 161 kts 132°
2026-04-23 11:22 55.85314 -3.68651 2978 ft 163 kts 108°
2026-04-23 11:23 55.85215 -3.66651 2983 ft 164 kts 83°
2026-04-23 11:23 55.85614 -3.64744 2986 ft 167 kts 59°
2026-04-23 11:23 55.86215 -3.62999 2979 ft 167 kts 60°
2026-04-23 11:23 55.86821 -3.61232 2961 ft 169 kts 62°
2026-04-23 11:24 55.87431 -3.59452 2847 ft 168 kts 61°
2026-04-23 11:24 55.88053 -3.57635 2605 ft 173 kts 60°
2026-04-23 11:24 55.88664 -3.55850 2398 ft 166 kts 60°
2026-04-23 11:24 55.89257 -3.54115 2175 ft 162 kts 60°
2026-04-23 11:25 55.89844 -3.52398 1949 ft 161 kts 61°
2026-04-23 11:25 55.90419 -3.50711 1729 ft 159 kts 59°
2026-04-23 11:25 55.90989 -3.49040 1505 ft 157 kts 60°
2026-04-23 11:25 55.91552 -3.47390 1309 ft 151 kts 60°
2026-04-23 11:26 55.92076 -3.45851 1102 ft 144 kts 60°
2026-04-23 11:26 55.92584 -3.44358 897 ft 137 kts 59°
2026-04-23 11:26 55.93064 -3.42948 725 ft 129 kts 58°
2026-04-23 11:26 55.93529 -3.41577 541 ft 128 kts 58°
2026-04-23 11:27 55.93986 -3.40233 365 ft 127 kts 59°
2026-04-23 11:27 55.94440 -3.38898 177 ft 125 kts 58°
2026-04-23 11:27 55.94871 -3.37621 114 ft 110 kts 58°
2026-04-23 11:27 55.95148 -3.36814 112 ft 44 kts 58°
2026-04-23 11:28 55.95246 -3.36524 112 ft 17 kts 59°
2026-04-23 11:28 55.95220 -3.36385 114 ft 10 kts 144°
2026-04-23 11:28 55.95177 -3.36333 115 ft 6 kts 148°
2026-04-23 11:28 55.95144 -3.36271 115 ft 9 kts 114°
2026-04-23 11:29 55.95124 -3.36165 113 ft 10 kts 108°
2026-04-23 11:29 55.95102 -3.36046 116 ft 10 kts 108°
2026-04-23 11:29 55.95073 -3.35925 113 ft 11 kts 118°
2026-04-23 11:29 55.95032 -3.35827 113 ft 7 kts 162°
2026-04-23 11:30 55.95009 -3.35835 114 ft 3 kts 207°
2026-04-23 11:30 55.94991 -3.35854 114 ft 3 kts 209°
2026-04-23 11:30 55.94959 -3.35866 114 ft 6 kts 169°
2026-04-23 11:30 55.94924 -3.35855 116 ft 4 kts 200°
2026-04-23 11:31 55.94911 -3.35896 113 ft 3 kts 253°
2026-04-23 11:31 55.94905 -3.35932 115 ft 3 kts 254°
2026-04-23 11:31 55.94900 -3.35963 116 ft 2 kts 254°
2026-04-23 11:31 55.94895 -3.35993 113 ft 2 kts 254°
2026-04-23 11:32 55.94894 -3.36002 113 ft 0 kts 254°